User: anonymous   Login
Location: Bishausen
(51.6334°N, 9.9631°E)
Time: 07:22:26
(UTC+00:00)
Language:

ATLAS 2AS CENTAUR R/B - Orbit

View from above orbital plane
View from above orbital plane
View from above satellite
View from above satellite

Ground track
Ground track

The orbit data is extracted from the following two-line orbital elements,

1 28096U 03054B   24203.77864454 -.00000006  00000-0  14131-3 0  9993
2 28096  63.6809 350.7307 0115179 167.2569 193.1413 13.40979817  9161
Epoch (UTC): 21 July 2024 18:41:14
Eccentricity: 0.0115179
inclination: 63.6809°
perigee height: 1019 km
apogee height: 1192 km
right ascension of ascending node: 350.7307°
argument of perigee: 167.2569°
revolutions per day: 13.40979817
mean anomaly at epoch: 193.1413°
orbit number at epoch: 916

The dashed part of the orbit path shows where the satellite is in the earth's shadow,  

DLR